Terminal Aerodrome Forecast
Issued by NWS North Platte, NE

Home | Current Version | Previous Version | Graphics & Text | Print | Product List | Glossary On
Versions: 1 2 3 4 5 6 7 8 9 10 11 12 13 14 15 16 17 18
000
FTUS43 KLBF 270520
TAFVTN
TAF
KVTN 270520Z 2706/2806 14011KT P6SM BKN200
     FM272000 03012KT P6SM SCT100 BKN200
      TEMPO 2722/2802 5SM -TSRA BKN070CB
     FM280200 34009KT P6SM SCT030 BKN050=

USA.gov is the U.S. government's official web portal to all federal, state and local government web resources and services.